Wetterdaten: Donnerstag, 09.04.2015
Datum Zeit Auen-Temp. Temp gefhlt Luftfeuchte Luftdruck Regen Wind Richtung Richtung Taupunkt Windben
09.04.2015 00:00 0,1 C -0,6 C 74 % 1029,1 hPa 0,0 mm 0,0 km/h (0 Bft) O-NO 67 -4,0 C 0,0 km/h (0 Bft)
09.04.2015 00:05 0,2 C -0,6 C 74 % 1028,9 hPa 0,0 mm 0,0 km/h (0 Bft) O 90 -3,9 C 0,0 km/h (0 Bft)
09.04.2015 00:10 0,2 C -0,6 C 74 % 1028,9 hPa 0,0 mm 0,0 km/h (0 Bft) N-NW 337 -3,9 C 0,0 km/h (0 Bft)
09.04.2015 00:15 -0,2 C -0,8 C 74 % 1028,9 hPa 0,0 mm 0,0 km/h (0 Bft) N-NW 337 -4,3 C 0,0 km/h (0 Bft)
09.04.2015 00:20 -0,2 C -0,8 C 74 % 1028,9 hPa 0,0 mm 0,0 km/h (0 Bft) O-NO 67 -4,3 C 0,0 km/h (0 Bft)
09.04.2015 00:25 -0,5 C -1,1 C 74 % 1029,0 hPa 0,0 mm 0,0 km/h (0 Bft) N-NW 337 -4,5 C 0,0 km/h (0 Bft)
09.04.2015 00:30 -0,6 C -1,1 C 74 % 1029,0 hPa 0,0 mm 0,0 km/h (0 Bft) N-NW 337 -4,6 C 0,0 km/h (0 Bft)
09.04.2015 00:35 -0,6 C -1,2 C 74 % 1029,0 hPa 0,0 mm 0,0 km/h (0 Bft) NO 45 -4,6 C 0,0 km/h (0 Bft)
09.04.2015 00:40 -0,7 C -1,3 C 74 % 1029,0 hPa 0,0 mm 0,0 km/h (0 Bft) N-NO 22 -4,7 C 0,0 km/h (0 Bft)
09.04.2015 00:45 -1,0 C -1,5 C 74 % 1028,9 hPa 0,0 mm 0,0 km/h (0 Bft) NO 45 -5,0 C 0,0 km/h (0 Bft)
09.04.2015 00:50 -0,7 C -1,4 C 76 % 1028,9 hPa 0,0 mm 0,0 km/h (0 Bft) O-NO 67 -4,4 C 0,0 km/h (0 Bft)
09.04.2015 00:55 -0,7 C -1,3 C 77 % 1028,9 hPa 0,0 mm 0,0 km/h (0 Bft) O-SO 112 -4,2 C 0,0 km/h (0 Bft)
09.04.2015 01:00 -0,5 C -1,2 C 78 % 1028,9 hPa 0,0 mm 0,0 km/h (0 Bft) O 90 -3,9 C 0,0 km/h (0 Bft)
09.04.2015 01:05 -0,4 C -1,1 C 78 % 1028,6 hPa 0,0 mm 0,0 km/h (0 Bft) O-NO 67 -3,8 C 0,0 km/h (0 Bft)
09.04.2015 01:10 -0,9 C -1,4 C 77 % 1028,6 hPa 0,0 mm 0,0 km/h (0 Bft) N-NW 337 -4,4 C 0,0 km/h (0 Bft)
09.04.2015 01:15 -1,0 C -1,5 C 77 % 1028,6 hPa 0,0 mm 0,5 km/h (0 Bft) W-SW 247 -4,5 C 0,0 km/h (0 Bft)
09.04.2015 01:20 -0,7 C -1,3 C 78 % 1028,6 hPa 0,0 mm 0,5 km/h (0 Bft) S 180 -4,0 C 0,0 km/h (0 Bft)
09.04.2015 01:25 -0,6 C -1,3 C 78 % 1028,3 hPa 0,0 mm 0,0 km/h (0 Bft) S-SO 157 -3,9 C 0,0 km/h (0 Bft)
09.04.2015 01:30 -0,9 C -1,4 C 78 % 1028,3 hPa 0,0 mm 0,0 km/h (0 Bft) S-SO 157 -4,2 C 0,0 km/h (0 Bft)
09.04.2015 01:35 -1,2 C -1,7 C 77 % 1028,3 hPa 0,0 mm 0,0 km/h (0 Bft) N-NO 22 -4,7 C 0,0 km/h (0 Bft)
09.04.2015 01:40 -1,4 C -1,8 C 77 % 1028,3 hPa 0,0 mm 0,0 km/h (0 Bft) S-SO 157 -4,9 C 0,0 km/h (0 Bft)
09.04.2015 01:45 -0,9 C -1,6 C 78 % 1028,1 hPa 0,0 mm 0,0 km/h (0 Bft) N-NO 22 -4,2 C 0,0 km/h (0 Bft)
09.04.2015 01:50 -0,8 C -1,5 C 78 % 1028,1 hPa 0,0 mm 0,0 km/h (0 Bft) NO 45 -4,1 C 0,0 km/h (0 Bft)
09.04.2015 01:55 -0,8 C -1,5 C 78 % 1028,1 hPa 0,0 mm 0,0 km/h (0 Bft) SO 135 -4,1 C 0,0 km/h (0 Bft)
09.04.2015 02:00 -0,7 C -1,4 C 79 % 1028,1 hPa 0,0 mm 0,0 km/h (0 Bft) O 90 -3,9 C 0,0 km/h (0 Bft)
09.04.2015 02:05 -0,9 C -1,6 C 78 % 1028,1 hPa 0,0 mm 0,0 km/h (0 Bft) O 90 -4,2 C 0,0 km/h (0 Bft)
09.04.2015 02:10 -1,2 C -1,8 C 78 % 1028,1 hPa 0,0 mm 0,0 km/h (0 Bft) W-NW 292 -4,5 C 0,0 km/h (0 Bft)
09.04.2015 02:15 -1,4 C -1,9 C 78 % 1028,1 hPa 0,0 mm 0,0 km/h (0 Bft) NO 45 -4,7 C 0,0 km/h (0 Bft)
09.04.2015 02:20 -1,4 C -1,9 C 78 % 1028,1 hPa 0,0 mm 0,0 km/h (0 Bft) NO 45 -4,7 C 0,0 km/h (0 Bft)
09.04.2015 02:25 -1,5 C -2,0 C 78 % 1028,0 hPa 0,0 mm 0,0 km/h (0 Bft) NO 45 -4,8 C 0,0 km/h (0 Bft)
09.04.2015 02:30 -1,5 C -2,0 C 78 % 1028,0 hPa 0,0 mm 0,0 km/h (0 Bft) NO 45 -4,8 C 0,0 km/h (0 Bft)
09.04.2015 02:35 -1,4 C -2,0 C 78 % 1028,0 hPa 0,0 mm 0,0 km/h (0 Bft) W 270 -4,7 C 0,0 km/h (0 Bft)
09.04.2015 02:40 -1,4 C -2,0 C 79 % 1028,0 hPa 0,0 mm 0,0 km/h (0 Bft) NO 45 -4,6 C 0,0 km/h (0 Bft)
09.04.2015 02:45 -1,8 C -2,3 C 78 % 1027,6 hPa 0,0 mm 0,0 km/h (0 Bft) NO 45 -5,1 C 0,0 km/h (0 Bft)
09.04.2015 02:50 -1,6 C -2,2 C 78 % 1027,6 hPa 0,0 mm 0,0 km/h (0 Bft) S-SO 157 -4,9 C 0,0 km/h (0 Bft)
09.04.2015 02:55 -1,5 C -2,0 C 79 % 1027,6 hPa 0,0 mm 0,0 km/h (0 Bft) O 90 -4,7 C 0,0 km/h (0 Bft)
09.04.2015 03:00 -1,8 C -2,3 C 79 % 1027,6 hPa 0,0 mm 0,0 km/h (0 Bft) O-NO 67 -4,9 C 0,0 km/h (0 Bft)
09.04.2015 03:05 -1,7 C -2,2 C 79 % 1027,5 hPa 0,0 mm 0,0 km/h (0 Bft) SO 135 -4,8 C 0,0 km/h (0 Bft)
09.04.2015 03:10 -1,6 C -2,2 C 79 % 1027,5 hPa 0,0 mm 0,0 km/h (0 Bft) SO 135 -4,8 C 0,0 km/h (0 Bft)
09.04.2015 03:15 -1,9 C -2,4 C 79 % 1027,5 hPa 0,0 mm 0,0 km/h (0 Bft) O-NO 67 -5,0 C 0,0 km/h (0 Bft)
09.04.2015 03:20 -2,0 C -2,5 C 79 % 1027,5 hPa 0,0 mm 0,0 km/h (0 Bft) O-NO 67 -5,1 C 0,0 km/h (0 Bft)
09.04.2015 03:25 -1,9 C -2,4 C 79 % 1027,4 hPa 0,0 mm 0,0 km/h (0 Bft) O-NO 67 -5,0 C 0,0 km/h (0 Bft)
09.04.2015 03:30 -2,0 C -2,5 C 79 % 1027,4 hPa 0,0 mm 0,0 km/h (0 Bft) N 360 -5,1 C 0,0 km/h (0 Bft)
09.04.2015 03:35 -1,7 C -2,3 C 79 % 1027,4 hPa 0,0 mm 0,0 km/h (0 Bft) N-NO 22 -4,8 C 0,0 km/h (0 Bft)
09.04.2015 03:40 -1,7 C -2,3 C 79 % 1027,4 hPa 0,0 mm 0,0 km/h (0 Bft) NO 45 -4,8 C 0,0 km/h (0 Bft)
09.04.2015 03:45 -1,6 C -2,2 C 80 % 1027,2 hPa 0,0 mm 0,0 km/h (0 Bft) O-NO 67 -4,6 C 0,0 km/h (0 Bft)
09.04.2015 03:50 -1,6 C -2,2 C 80 % 1027,2 hPa 0,0 mm 0,0 km/h (0 Bft) O-NO 67 -4,6 C 0,0 km/h (0 Bft)
09.04.2015 03:55 -1,7 C -2,3 C 80 % 1027,2 hPa 0,0 mm 0,0 km/h (0 Bft) O-NO 67 -4,7 C 0,0 km/h (0 Bft)
09.04.2015 04:00 -1,7 C -2,3 C 80 % 1027,2 hPa 0,0 mm 0,0 km/h (0 Bft) NO 45 -4,7 C 0,0 km/h (0 Bft)
09.04.2015 04:05 -1,9 C -2,5 C 80 % 1027,2 hPa 0,0 mm 0,0 km/h (0 Bft) N-NO 22 -4,9 C 0,0 km/h (0 Bft)
09.04.2015 04:10 -2,0 C -2,6 C 80 % 1027,2 hPa 0,0 mm 0,0 km/h (0 Bft) NO 45 -5,0 C 0,0 km/h (0 Bft)
09.04.2015 04:15 -2,0 C -2,6 C 80 % 1027,2 hPa 0,0 mm 0,0 km/h (0 Bft) O-SO 112 -5,0 C 0,0 km/h (0 Bft)
09.04.2015 04:20 -2,0 C -2,7 C 80 % 1027,2 hPa 0,0 mm 0,0 km/h (0 Bft) O-NO 67 -5,0 C 0,0 km/h (0 Bft)
09.04.2015 04:25 -2,1 C -2,7 C 80 % 1027,2 hPa 0,0 mm 0,0 km/h (0 Bft) O-NO 67 -5,1 C 0,0 km/h (0 Bft)
09.04.2015 04:30 -2,4 C -2,9 C 79 % 1027,2 hPa 0,0 mm 0,0 km/h (0 Bft) O-SO 112 -5,5 C 0,0 km/h (0 Bft)
09.04.2015 04:35 -2,2 C -2,8 C 80 % 1027,2 hPa 0,0 mm 0,0 km/h (0 Bft) O-NO 67 -5,2 C 0,0 km/h (0 Bft)
09.04.2015 04:40 -2,2 C -2,7 C 80 % 1027,2 hPa 0,0 mm 0,0 km/h (0 Bft) O-NO 67 -5,2 C 0,0 km/h (0 Bft)
09.04.2015 04:45 -2,4 C -2,9 C 80 % 1027,1 hPa 0,0 mm 0,0 km/h (0 Bft) NW 315 -5,4 C 0,0 km/h (0 Bft)
09.04.2015 04:50 -2,4 C -2,9 C 80 % 1027,1 hPa 0,0 mm 0,0 km/h (0 Bft) N-NW 337 -5,4 C 0,0 km/h (0 Bft)
09.04.2015 04:55 -2,1 C -2,7 C 80 % 1027,1 hPa 0,0 mm 0,0 km/h (0 Bft) O-NO 67 -5,1 C 0,0 km/h (0 Bft)
09.04.2015 05:00 -2,2 C -2,8 C 80 % 1027,1 hPa 0,0 mm 0,0 km/h (0 Bft) O-NO 67 -5,2 C 0,0 km/h (0 Bft)
09.04.2015 05:05 -2,1 C -2,7 C 81 % 1026,8 hPa 0,0 mm 0,0 km/h (0 Bft) W 270 -4,9 C 0,0 km/h (0 Bft)
09.04.2015 05:10 -2,0 C -2,6 C 81 % 1026,8 hPa 0,0 mm 0,0 km/h (0 Bft) W-SW 247 -4,8 C 0,0 km/h (0 Bft)
09.04.2015 05:15 -2,2 C -2,7 C 80 % 1026,8 hPa 0,0 mm 0,0 km/h (0 Bft) NW 315 -5,2 C 0,0 km/h (0 Bft)
09.04.2015 05:20 -2,3 C -2,8 C 80 % 1026,8 hPa 0,0 mm 0,0 km/h (0 Bft) O-NO 67 -5,3 C 0,0 km/h (0 Bft)
09.04.2015 05:25 -2,5 C -2,9 C 80 % 1026,6 hPa 0,0 mm 0,0 km/h (0 Bft) O-SO 112 -5,5 C 0,0 km/h (0 Bft)
09.04.2015 05:30 -2,3 C -2,8 C 81 % 1026,6 hPa 0,0 mm 0,0 km/h (0 Bft) O-NO 67 -5,1 C 0,0 km/h (0 Bft)
09.04.2015 05:35 -2,1 C -2,7 C 81 % 1026,6 hPa 0,0 mm 0,0 km/h (0 Bft) NO 45 -4,9 C 0,0 km/h (0 Bft)
09.04.2015 05:40 -2,4 C -2,9 C 81 % 1026,6 hPa 0,0 mm 0,0 km/h (0 Bft) N-NW 337 -5,2 C 0,0 km/h (0 Bft)
09.04.2015 05:45 -2,5 C -3,0 C 81 % 1026,5 hPa 0,0 mm 0,0 km/h (0 Bft) W 270 -5,3 C 0,0 km/h (0 Bft)
09.04.2015 05:50 -2,4 C -2,9 C 81 % 1026,5 hPa 0,0 mm 0,0 km/h (0 Bft) N-NW 337 -5,2 C 0,0 km/h (0 Bft)
09.04.2015 05:55 -2,4 C -2,9 C 81 % 1026,5 hPa 0,0 mm 0,0 km/h (0 Bft) O-NO 67 -5,2 C 0,0 km/h (0 Bft)
09.04.2015 06:00 -2,6 C -3,1 C 81 % 1026,5 hPa 0,0 mm 0,0 km/h (0 Bft) O-SO 112 -5,4 C 0,0 km/h (0 Bft)
09.04.2015 06:05 -2,5 C -3,0 C 81 % 1026,4 hPa 0,0 mm 0,0 km/h (0 Bft) O-SO 112 -5,3 C 0,0 km/h (0 Bft)
09.04.2015 06:10 -2,4 C -2,9 C 81 % 1026,4 hPa 0,0 mm 0,0 km/h (0 Bft) SO 135 -5,2 C 0,0 km/h (0 Bft)
09.04.2015 06:15 -2,6 C -3,0 C 81 % 1026,4 hPa 0,0 mm 0,0 km/h (0 Bft) SO 135 -5,4 C 0,0 km/h (0 Bft)
09.04.2015 06:20 -2,6 C -3,0 C 81 % 1026,4 hPa 0,0 mm 0,0 km/h (0 Bft) NW 315 -5,4 C 0,0 km/h (0 Bft)
09.04.2015 06:25 -2,6 C -3,1 C 81 % 1026,4 hPa 0,0 mm 0,0 km/h (0 Bft) W 270 -5,4 C 0,0 km/h (0 Bft)
09.04.2015 06:30 -2,6 C -3,1 C 81 % 1026,4 hPa 0,0 mm 0,0 km/h (0 Bft) S-SO 157 -5,4 C 0,0 km/h (0 Bft)
09.04.2015 06:35 -2,6 C -3,1 C 81 % 1026,4 hPa 0,0 mm 0,0 km/h (0 Bft) W-SW 247 -5,4 C 0,0 km/h (0 Bft)
09.04.2015 06:40 -2,7 C -3,2 C 81 % 1026,4 hPa 0,0 mm 0,0 km/h (0 Bft) W 270 -5,5 C 0,0 km/h (0 Bft)
09.04.2015 06:45 -2,6 C -3,1 C 81 % 1026,5 hPa 0,0 mm 0,0 km/h (0 Bft) NO 45 -5,4 C 0,0 km/h (0 Bft)
09.04.2015 06:50 -2,6 C -3,1 C 81 % 1026,5 hPa 0,0 mm 0,0 km/h (0 Bft) O 90 -5,4 C 0,0 km/h (0 Bft)
09.04.2015 06:55 -2,6 C -3,1 C 81 % 1026,5 hPa 0,0 mm 0,0 km/h (0 Bft) SW 225 -5,4 C 0,0 km/h (0 Bft)
09.04.2015 07:00 -2,8 C -3,2 C 81 % 1026,5 hPa 0,0 mm 0,0 km/h (0 Bft) SW 225 -5,6 C 0,0 km/h (0 Bft)
09.04.2015 07:05 -2,8 C -3,2 C 81 % 1026,1 hPa 0,0 mm 0,0 km/h (0 Bft) N-NO 22 -5,6 C 0,0 km/h (0 Bft)
09.04.2015 07:10 -2,8 C -3,1 C 81 % 1026,1 hPa 0,0 mm 0,0 km/h (0 Bft) SO 135 -5,6 C 0,0 km/h (0 Bft)
09.04.2015 07:15 -2,2 C -2,6 C 82 % 1026,1 hPa 0,0 mm 0,0 km/h (0 Bft) O-NO 67 -4,8 C 0,0 km/h (0 Bft)
09.04.2015 07:20 -2,4 C -2,7 C 82 % 1026,1 hPa 0,0 mm 0,0 km/h (0 Bft) O-SO 112 -5,0 C 0,0 km/h (0 Bft)
09.04.2015 07:25 -2,4 C -2,7 C 82 % 1026,4 hPa 0,0 mm 0,0 km/h (0 Bft) NO 45 -5,0 C 0,0 km/h (0 Bft)
09.04.2015 07:30 -2,3 C -2,6 C 82 % 1026,4 hPa 0,0 mm 0,0 km/h (0 Bft) NW 315 -4,9 C 0,0 km/h (0 Bft)
09.04.2015 07:35 -1,9 C -2,2 C 82 % 1026,4 hPa 0,0 mm 0,0 km/h (0 Bft) O-NO 67 -4,6 C 0,0 km/h (0 Bft)
09.04.2015 07:40 -1,9 C -1,9 C 82 % 1026,4 hPa 0,0 mm 0,0 km/h (0 Bft) NO 45 -4,6 C 0,0 km/h (0 Bft)
09.04.2015 07:45 -1,7 C -0,5 C 82 % 1026,1 hPa 0,0 mm 0,0 km/h (0 Bft) NO 45 -4,4 C 0,0 km/h (0 Bft)
09.04.2015 07:50 -1,6 C 1,0 C 82 % 1026,1 hPa 0,0 mm 0,0 km/h (0 Bft) O-SO 112 -4,3 C 0,0 km/h (0 Bft)
09.04.2015 07:55 -1,1 C 3,2 C 79 % 1026,1 hPa 0,0 mm 0,0 km/h (0 Bft) O-NO 67 -4,3 C 0,0 km/h (0 Bft)
09.04.2015 08:00 -0,9 C 4,8 C 79 % 1026,1 hPa 0,0 mm 0,0 km/h (0 Bft) SW 225 -4,1 C 0,0 km/h (0 Bft)
09.04.2015 08:05 -0,6 C 7,0 C 79 % 1026,1 hPa 0,0 mm 0,0 km/h (0 Bft) W 270 -3,8 C 0,0 km/h (0 Bft)
09.04.2015 08:10 -0,4 C 8,0 C 79 % 1026,1 hPa 0,0 mm 0,0 km/h (0 Bft) W-NW 292 -3,6 C 0,0 km/h (0 Bft)
09.04.2015 08:15 0,5 C 9,2 C 79 % 1026,1 hPa 0,0 mm 0,0 km/h (0 Bft) O-SO 112 -2,7 C 0,0 km/h (0 Bft)
09.04.2015 08:20 0,9 C 10,2 C 78 % 1026,1 hPa 0,0 mm 0,0 km/h (0 Bft) N-NO 22 -2,5 C 0,0 km/h (0 Bft)
09.04.2015 08:25 1,8 C 10,8 C 78 % 1026,1 hPa 0,0 mm 0,0 km/h (0 Bft) O-NO 67 -1,6 C 0,0 km/h (0 Bft)
09.04.2015 08:30 2,0 C 11,6 C 77 % 1026,1 hPa 0,0 mm 0,0 km/h (0 Bft) N-NO 22 -1,6 C 0,0 km/h (0 Bft)
09.04.2015 08:35 2,4 C 12,9 C 76 % 1026,1 hPa 0,0 mm 0,0 km/h (0 Bft) N-NO 22 -1,4 C 0,0 km/h (0 Bft)
09.04.2015 08:40 2,6 C 13,4 C 75 % 1026,1 hPa 0,0 mm 0,0 km/h (0 Bft) NO 45 -1,4 C 0,0 km/h (0 Bft)
09.04.2015 08:45 3,0 C 14,6 C 74 % 1026,4 hPa 0,0 mm 0,0 km/h (0 Bft) SO 135 -1,2 C 0,0 km/h (0 Bft)
09.04.2015 08:50 3,1 C 14,7 C 73 % 1026,4 hPa 0,0 mm 0,0 km/h (0 Bft) S-SO 157 -1,3 C 0,0 km/h (0 Bft)
09.04.2015 08:55 3,9 C 14,7 C 72 % 1026,4 hPa 0,0 mm 0,0 km/h (0 Bft) O-SO 112 -0,7 C 0,0 km/h (0 Bft)
09.04.2015 09:00 4,3 C 14,7 C 71 % 1026,4 hPa 0,0 mm 0,0 km/h (0 Bft) O-SO 112 -0,5 C 0,0 km/h (0 Bft)
09.04.2015 09:05 4,6 C 14,7 C 69 % 1026,7 hPa 0,0 mm 0,0 km/h (0 Bft) O-SO 112 -0,6 C 0,0 km/h (0 Bft)
09.04.2015 09:10 4,9 C 14,4 C 68 % 1026,7 hPa 0,0 mm 0,0 km/h (0 Bft) S-SO 157 -0,5 C 0,0 km/h (0 Bft)
09.04.2015 09:15 5,1 C 14,7 C 67 % 1026,7 hPa 0,0 mm 0,0 km/h (0 Bft) S-SO 157 -0,5 C 0,0 km/h (0 Bft)
09.04.2015 09:20 5,6 C 15,5 C 67 % 1026,7 hPa 0,0 mm 0,0 km/h (0 Bft) S-SO 157 -0,0 C 0,0 km/h (0 Bft)
09.04.2015 09:25 5,9 C 15,6 C 66 % 1026,8 hPa 0,0 mm 0,0 km/h (0 Bft) O-SO 112 0,0 C 0,0 km/h (0 Bft)
09.04.2015 09:30 6,1 C 15,3 C 64 % 1026,8 hPa 0,0 mm 0,0 km/h (0 Bft) O-SO 112 -0,2 C 0,0 km/h (0 Bft)
09.04.2015 09:35 6,1 C 15,5 C 63 % 1026,8 hPa 0,0 mm 0,0 km/h (0 Bft) O-SO 112 -0,4 C 0,0 km/h (0 Bft)
09.04.2015 09:40 7,0 C 16,3 C 63 % 1026,8 hPa 0,0 mm 0,0 km/h (0 Bft) SO 135 0,4 C 0,0 km/h (0 Bft)
09.04.2015 09:45 7,6 C 17,2 C 62 % 1026,8 hPa 0,0 mm 0,0 km/h (0 Bft) O-SO 112 0,8 C 0,0 km/h (0 Bft)
09.04.2015 09:50 8,2 C 17,4 C 61 % 1026,8 hPa 0,0 mm 0,8 km/h (0 Bft) N-NO 22 1,1 C 3,9 km/h (1 Bft)
09.04.2015 09:55 8,8 C 17,5 C 60 % 1026,8 hPa 0,0 mm 1,6 km/h (1 Bft) W-SW 247 1,5 C 5,2 km/h (1 Bft)
09.04.2015 10:00 9,0 C 17,0 C 59 % 1026,8 hPa 0,0 mm 2,8 km/h (1 Bft) NW 315 1,4 C 3,4 km/h (1 Bft)
09.04.2015 10:05 9,0 C 16,1 C 59 % 1027,0 hPa 0,0 mm 5,2 km/h (1 Bft) NW 315 1,4 C 11,7 km/h (2 Bft)
09.04.2015 10:10 9,3 C 16,0 C 58 % 1027,0 hPa 0,0 mm 6,0 km/h (2 Bft) NW 315 1,5 C 12,9 km/h (3 Bft)
09.04.2015 10:15 9,5 C 15,4 C 58 % 1027,0 hPa 0,0 mm 6,7 km/h (2 Bft) W-NW 292 1,7 C 14,2 km/h (3 Bft)
09.04.2015 10:20 9,9 C 15,5 C 58 % 1027,0 hPa 0,0 mm 6,7 km/h (2 Bft) W-NW 292 2,0 C 7,0 km/h (2 Bft)
09.04.2015 10:25 9,8 C 15,5 C 56 % 1027,2 hPa 0,0 mm 6,7 km/h (2 Bft) NW 315 1,4 C 17,1 km/h (3 Bft)
09.04.2015 10:30 9,8 C 15,5 C 56 % 1027,2 hPa 0,0 mm 8,0 km/h (2 Bft) W 270 1,4 C 9,3 km/h (2 Bft)
09.04.2015 10:35 10,2 C 15,7 C 56 % 1027,2 hPa 0,0 mm 7,5 km/h (2 Bft) NW 315 1,8 C 8,3 km/h (2 Bft)
09.04.2015 10:40 10,6 C 15,8 C 56 % 1027,2 hPa 0,0 mm 7,3 km/h (2 Bft) NW 315 2,2 C 7,3 km/h (2 Bft)
09.04.2015 10:45 11,1 C 15,8 C 55 % 1027,8 hPa 0,0 mm 7,8 km/h (2 Bft) NW 315 2,4 C 7,0 km/h (2 Bft)
09.04.2015 10:50 11,3 C 16,0 C 55 % 1027,8 hPa 0,0 mm 7,8 km/h (2 Bft) W-NW 292 2,6 C 9,3 km/h (2 Bft)
09.04.2015 10:55 11,5 C 16,0 C 55 % 1027,8 hPa 0,0 mm 8,3 km/h (2 Bft) W-NW 292 2,8 C 9,6 km/h (2 Bft)
09.04.2015 11:00 11,7 C 16,0 C 54 % 1027,8 hPa 0,0 mm 9,1 km/h (2 Bft) NW 315 2,7 C 10,6 km/h (2 Bft)
09.04.2015 11:05 11,7 C 16,0 C 54 % 1028,8 hPa 0,0 mm 9,1 km/h (2 Bft) W-NW 292 2,7 C 7,5 km/h (2 Bft)
09.04.2015 11:10 12,0 C 16,2 C 54 % 1028,8 hPa 0,0 mm 9,1 km/h (2 Bft) N-NW 337 3,0 C 17,9 km/h (3 Bft)
09.04.2015 11:15 11,9 C 16,0 C 54 % 1028,8 hPa 0,0 mm 9,8 km/h (2 Bft) W-NW 292 2,9 C 20,7 km/h (4 Bft)
09.04.2015 11:20 12,0 C 15,9 C 53 % 1028,8 hPa 0,0 mm 10,4 km/h (2 Bft) NW 315 2,7 C 13,2 km/h (3 Bft)
09.04.2015 11:25 12,2 C 15,7 C 53 % 1029,3 hPa 0,0 mm 11,4 km/h (2 Bft) NW 315 2,9 C 9,6 km/h (2 Bft)
09.04.2015 11:30 12,4 C 16,0 C 53 % 1029,3 hPa 0,0 mm 11,4 km/h (2 Bft) W 270 3,1 C 15,0 km/h (3 Bft)
09.04.2015 11:35 12,8 C 16,5 C 52 % 1029,3 hPa 0,0 mm 9,3 km/h (2 Bft) NW 315 3,2 C 12,4 km/h (3 Bft)
09.04.2015 11:40 12,9 C 16,7 C 51 % 1029,3 hPa 0,0 mm 9,3 km/h (2 Bft) NW 315 3,0 C 15,8 km/h (3 Bft)
09.04.2015 11:45 13,0 C 16,8 C 49 % 1029,1 hPa 0,0 mm 10,1 km/h (2 Bft) W-NW 292 2,5 C 15,3 km/h (3 Bft)
09.04.2015 11:50 13,3 C 17,1 C 50 % 1029,1 hPa 0,0 mm 10,1 km/h (2 Bft) NW 315 3,1 C 9,1 km/h (2 Bft)
09.04.2015 11:55 13,6 C 17,3 C 48 % 1029,1 hPa 0,0 mm 9,8 km/h (2 Bft) W-NW 292 2,8 C 10,4 km/h (2 Bft)
09.04.2015 12:00 13,8 C 17,3 C 48 % 1029,1 hPa 0,0 mm 10,9 km/h (2 Bft) NW 315 3,0 C 17,6 km/h (3 Bft)
09.04.2015 12:05 14,0 C 17,2 C 46 % 1029,1 hPa 0,0 mm 12,9 km/h (3 Bft) W-NW 292 2,6 C 24,3 km/h (4 Bft)
09.04.2015 12:10 13,8 C 17,2 C 46 % 1029,1 hPa 0,0 mm 12,9 km/h (3 Bft) W 270 2,4 C 7,8 km/h (2 Bft)
09.04.2015 12:15 13,9 C 17,6 C 46 % 1029,1 hPa 0,0 mm 11,4 km/h (2 Bft) S-SO 157 2,5 C 10,6 km/h (2 Bft)
09.04.2015 12:20 13,8 C 17,6 C 46 % 1029,1 hPa 0,0 mm 11,1 km/h (2 Bft) W 270 2,4 C 8,5 km/h (2 Bft)
09.04.2015 12:25 14,2 C 18,2 C 46 % 1029,1 hPa 0,0 mm 9,6 km/h (2 Bft) W-SW 247 2,8 C 7,8 km/h (2 Bft)
09.04.2015 12:30 14,2 C 18,4 C 45 % 1029,1 hPa 0,0 mm 9,6 km/h (2 Bft) NW 315 2,4 C 12,2 km/h (2 Bft)
09.04.2015 12:35 14,6 C 18,8 C 46 % 1029,1 hPa 0,0 mm 8,5 km/h (2 Bft) W 270 3,1 C 7,5 km/h (2 Bft)
09.04.2015 12:40 14,9 C 19,0 C 46 % 1029,1 hPa 0,0 mm 8,5 km/h (2 Bft) NW 315 3,4 C 16,6 km/h (3 Bft)
09.04.2015 12:45 15,1 C 18,7 C 45 % 1028,7 hPa 0,0 mm 10,6 km/h (2 Bft) N 360 3,3 C 15,0 km/h (3 Bft)
09.04.2015 12:50 15,2 C 18,4 C 45 % 1028,7 hPa 0,0 mm 10,9 km/h (2 Bft) W-NW 292 3,4 C 10,9 km/h (2 Bft)
09.04.2015 12:55 15,5 C 18,4 C 45 % 1028,7 hPa 0,0 mm 9,1 km/h (2 Bft) N-NW 337 3,6 C 8,0 km/h (2 Bft)
09.04.2015 13:00 15,7 C 18,1 C 45 % 1028,7 hPa 0,0 mm 8,3 km/h (2 Bft) W-NW 292 3,8 C 6,7 km/h (2 Bft)
09.04.2015 13:05 15,6 C 18,0 C 45 % 1028,9 hPa 0,0 mm 9,1 km/h (2 Bft) NW 315 3,7 C 12,4 km/h (3 Bft)
09.04.2015 13:10 15,7 C 18,2 C 45 % 1028,9 hPa 0,0 mm 8,0 km/h (2 Bft) NW 315 3,8 C 4,1 km/h (1 Bft)
09.04.2015 13:15 15,8 C 18,1 C 44 % 1028,9 hPa 0,0 mm 8,3 km/h (2 Bft) W-NW 292 3,6 C 11,1 km/h (2 Bft)
09.04.2015 13:20 15,8 C 18,4 C 44 % 1028,9 hPa 0,0 mm 7,8 km/h (2 Bft) W-NW 292 3,6 C 4,4 km/h (1 Bft)
09.04.2015 13:25 16,6 C 19,6 C 43 % 1028,6 hPa 0,0 mm 5,4 km/h (1 Bft) N-NW 337 4,0 C 0,0 km/h (0 Bft)
09.04.2015 13:30 16,6 C 20,0 C 41 % 1028,6 hPa 0,0 mm 7,5 km/h (2 Bft) NW 315 3,3 C 16,8 km/h (3 Bft)
09.04.2015 13:35 16,6 C 19,6 C 41 % 1028,6 hPa 0,0 mm 10,4 km/h (2 Bft) W 270 3,3 C 5,2 km/h (1 Bft)
09.04.2015 13:40 16,5 C 20,2 C 41 % 1028,6 hPa 0,0 mm 8,0 km/h (2 Bft) W 270 3,2 C 4,7 km/h (1 Bft)
09.04.2015 13:45 16,7 C 20,6 C 41 % 1028,2 hPa 0,0 mm 5,2 km/h (1 Bft) W 270 3,4 C 11,7 km/h (2 Bft)
09.04.2015 13:50 16,7 C 20,8 C 41 % 1028,2 hPa 0,0 mm 5,2 km/h (1 Bft) SW 225 3,4 C 5,2 km/h (1 Bft)
09.04.2015 13:55 16,7 C 21,1 C 42 % 1028,2 hPa 0,0 mm 6,2 km/h (2 Bft) NW 315 3,7 C 14,8 km/h (3 Bft)
09.04.2015 14:00 17,0 C 21,0 C 41 % 1028,2 hPa 0,0 mm 7,3 km/h (2 Bft) N-NO 22 3,7 C 6,5 km/h (2 Bft)
09.04.2015 14:05 17,3 C 21,3 C 41 % 1027,9 hPa 0,0 mm 4,9 km/h (1 Bft) W 270 3,9 C 0,0 km/h (0 Bft)
09.04.2015 14:10 17,5 C 21,7 C 40 % 1027,9 hPa 0,0 mm 2,1 km/h (1 Bft) W-SW 247 3,8 C 6,7 km/h (2 Bft)
09.04.2015 14:12 17,1 C 22,1 C 39 % 1027,9 hPa 0,0 mm 3,6 km/h (1 Bft) W-SW 247 3,0 C 7,3 km/h (2 Bft)
09.04.2015 14:14 17,1 C 22,1 C 39 % 1027,9 hPa 0,0 mm 3,6 km/h (1 Bft) W-SW 247 3,0 C 7,3 km/h (2 Bft)
09.04.2015 14:15 17,1 C 22,1 C 39 % 1027,9 hPa 0,0 mm 3,6 km/h (1 Bft) W-SW 247 3,0 C 7,3 km/h (2 Bft)
09.04.2015 14:20 17,4 C 22,3 C 39 % 1027,9 hPa 0,0 mm 4,9 km/h (1 Bft) NW 315 3,3 C 10,1 km/h (2 Bft)
09.04.2015 14:25 17,6 C 22,3 C 39 % 1027,4 hPa 0,0 mm 4,1 km/h (1 Bft) SW 225 3,5 C 0,0 km/h (0 Bft)
09.04.2015 14:30 17,9 C 23,0 C 38 % 1027,4 hPa 0,0 mm 3,4 km/h (1 Bft) O-NO 67 3,4 C 7,8 km/h (2 Bft)
09.04.2015 14:35 17,5 C 22,8 C 38 % 1027,4 hPa 0,0 mm 3,9 km/h (1 Bft) N-NW 337 3,0 C 7,5 km/h (2 Bft)
09.04.2015 14:40 17,6 C 22,5 C 38 % 1027,4 hPa 0,0 mm 7,3 km/h (2 Bft) N-NW 337 3,1 C 8,0 km/h (2 Bft)
09.04.2015 14:45 17,8 C 21,7 C 39 % 1027,2 hPa 0,0 mm 8,8 km/h (2 Bft) NW 315 3,7 C 6,0 km/h (2 Bft)
09.04.2015 14:50 17,9 C 21,5 C 39 % 1027,2 hPa 0,0 mm 7,8 km/h (2 Bft) W 270 3,8 C 0,0 km/h (0 Bft)
09.04.2015 14:55 17,5 C 21,9 C 37 % 1027,2 hPa 0,0 mm 5,4 km/h (1 Bft) NO 45 2,7 C 10,4 km/h (2 Bft)
09.04.2015 15:00 17,7 C 21,8 C 38 % 1027,2 hPa 0,0 mm 6,5 km/h (2 Bft) N-NW 337 3,2 C 12,9 km/h (3 Bft)
09.04.2015 15:05 18,4 C 21,8 C 39 % 1026,8 hPa 0,0 mm 9,3 km/h (2 Bft) NW 315 4,2 C 8,5 km/h (2 Bft)
09.04.2015 15:10 18,3 C 21,9 C 37 % 1026,8 hPa 0,0 mm 7,3 km/h (2 Bft) N-NO 22 3,4 C 2,6 km/h (1 Bft)
09.04.2015 15:15 18,4 C 22,1 C 37 % 1026,8 hPa 0,0 mm 7,8 km/h (2 Bft) W-SW 247 3,5 C 9,6 km/h (2 Bft)
09.04.2015 15:20 18,2 C 21,9 C 37 % 1026,8 hPa 0,0 mm 7,8 km/h (2 Bft) NO 45 3,3 C 4,9 km/h (1 Bft)
09.04.2015 15:25 18,5 C 22,6 C 38 % 1026,3 hPa 0,0 mm 5,4 km/h (1 Bft) NW 315 3,9 C 13,5 km/h (3 Bft)
09.04.2015 15:30 18,3 C 22,5 C 37 % 1026,3 hPa 0,0 mm 5,4 km/h (1 Bft) NW 315 3,4 C 9,1 km/h (2 Bft)
09.04.2015 15:35 18,2 C 22,0 C 37 % 1026,3 hPa 0,0 mm 9,1 km/h (2 Bft) W-NW 292 3,3 C 16,6 km/h (3 Bft)
09.04.2015 15:40 18,3 C 21,8 C 37 % 1026,3 hPa 0,0 mm 8,8 km/h (2 Bft) NW 315 3,4 C 10,4 km/h (2 Bft)
09.04.2015 15:45 18,4 C 21,9 C 37 % 1025,9 hPa 0,0 mm 8,3 km/h (2 Bft) SW 225 3,5 C 6,0 km/h (2 Bft)
09.04.2015 15:50 18,2 C 22,2 C 36 % 1025,9 hPa 0,0 mm 7,3 km/h (2 Bft) S 180 2,9 C 7,8 km/h (2 Bft)
09.04.2015 15:55 18,2 C 22,2 C 37 % 1025,9 hPa 0,0 mm 5,4 km/h (1 Bft) S 180 3,3 C 6,2 km/h (2 Bft)
09.04.2015 16:00 18,2 C 22,1 C 37 % 1025,9 hPa 0,0 mm 6,0 km/h (2 Bft) W 270 3,3 C 6,0 km/h (2 Bft)
09.04.2015 16:05 18,5 C 22,0 C 37 % 1025,6 hPa 0,0 mm 5,7 km/h (1 Bft) NW 315 3,5 C 2,6 km/h (1 Bft)
09.04.2015 16:10 18,8 C 22,2 C 37 % 1025,6 hPa 0,0 mm 6,2 km/h (2 Bft) NW 315 3,8 C 11,4 km/h (2 Bft)
09.04.2015 16:15 18,5 C 22,3 C 37 % 1025,6 hPa 0,0 mm 6,5 km/h (2 Bft) W 270 3,5 C 6,2 km/h (2 Bft)
09.04.2015 16:20 18,6 C 22,5 C 37 % 1025,6 hPa 0,0 mm 6,2 km/h (2 Bft) N-NW 337 3,6 C 12,9 km/h (3 Bft)
09.04.2015 16:25 18,6 C 22,3 C 38 % 1025,4 hPa 0,0 mm 7,3 km/h (2 Bft) W-SW 247 4,0 C 13,7 km/h (3 Bft)
09.04.2015 16:30 18,4 C 22,1 C 37 % 1025,4 hPa 0,0 mm 8,5 km/h (2 Bft) W-SW 247 3,5 C 5,4 km/h (1 Bft)
09.04.2015 16:35 18,5 C 22,3 C 38 % 1025,4 hPa 0,0 mm 7,5 km/h (2 Bft) W 270 3,9 C 10,9 km/h (2 Bft)
09.04.2015 16:40 18,5 C 22,1 C 38 % 1025,4 hPa 0,0 mm 7,5 km/h (2 Bft) N-NO 22 3,9 C 9,1 km/h (2 Bft)
09.04.2015 16:45 18,3 C 22,0 C 38 % 1025,4 hPa 0,0 mm 9,3 km/h (2 Bft) W 270 3,7 C 7,0 km/h (2 Bft)
09.04.2015 16:50 18,2 C 21,7 C 38 % 1025,4 hPa 0,0 mm 8,0 km/h (2 Bft) NW 315 3,7 C 13,7 km/h (3 Bft)
09.04.2015 16:55 18,0 C 20,9 C 38 % 1025,4 hPa 0,0 mm 7,8 km/h (2 Bft) NW 315 3,5 C 9,8 km/h (2 Bft)
09.04.2015 17:00 17,9 C 20,2 C 39 % 1025,4 hPa 0,0 mm 7,8 km/h (2 Bft) SW 225 3,8 C 7,8 km/h (2 Bft)
09.04.2015 17:05 17,8 C 19,4 C 39 % 1025,2 hPa 0,0 mm 7,5 km/h (2 Bft) NW 315 3,7 C 9,8 km/h (2 Bft)
09.04.2015 17:10 18,0 C 19,2 C 39 % 1025,2 hPa 0,0 mm 9,1 km/h (2 Bft) W-NW 292 3,8 C 13,5 km/h (3 Bft)
09.04.2015 17:15 17,9 C 18,7 C 39 % 1025,2 hPa 0,0 mm 10,4 km/h (2 Bft) W-NW 292 3,8 C 11,4 km/h (2 Bft)
09.04.2015 17:20 17,8 C 18,5 C 39 % 1025,2 hPa 0,0 mm 9,3 km/h (2 Bft) NW 315 3,7 C 6,0 km/h (2 Bft)
09.04.2015 17:25 17,8 C 18,5 C 39 % 1025,1 hPa 0,0 mm 7,0 km/h (2 Bft) NW 315 3,7 C 10,4 km/h (2 Bft)
09.04.2015 17:30 17,8 C 18,7 C 39 % 1025,1 hPa 0,0 mm 5,7 km/h (1 Bft) W-NW 292 3,7 C 5,7 km/h (1 Bft)
09.04.2015 17:35 17,5 C 19,0 C 39 % 1025,1 hPa 0,0 mm 5,2 km/h (1 Bft) N-NW 337 3,4 C 15,8 km/h (3 Bft)
09.04.2015 17:40 17,5 C 19,0 C 39 % 1025,1 hPa 0,0 mm 7,3 km/h (2 Bft) W-NW 292 3,4 C 9,3 km/h (2 Bft)
09.04.2015 17:45 17,4 C 18,5 C 39 % 1024,8 hPa 0,0 mm 8,3 km/h (2 Bft) W-SW 247 3,3 C 10,6 km/h (2 Bft)
09.04.2015 17:50 17,3 C 18,5 C 39 % 1024,8 hPa 0,0 mm 7,0 km/h (2 Bft) W-NW 292 3,2 C 6,0 km/h (2 Bft)
09.04.2015 17:55 16,9 C 18,6 C 39 % 1024,8 hPa 0,0 mm 4,4 km/h (1 Bft) NW 315 2,9 C 4,1 km/h (1 Bft)
09.04.2015 18:00 16,7 C 18,3 C 39 % 1024,8 hPa 0,0 mm 2,8 km/h (1 Bft) NW 315 2,7 C 5,2 km/h (1 Bft)
09.04.2015 18:05 16,4 C 18,2 C 40 % 1024,6 hPa 0,0 mm 2,3 km/h (1 Bft) N-NW 337 2,8 C 4,7 km/h (1 Bft)
09.04.2015 18:10 16,5 C 17,9 C 40 % 1024,6 hPa 0,0 mm 2,8 km/h (1 Bft) W-NW 292 2,9 C 8,0 km/h (2 Bft)
09.04.2015 18:15 16,7 C 17,8 C 39 % 1024,6 hPa 0,0 mm 7,3 km/h (2 Bft) W-NW 292 2,7 C 12,9 km/h (3 Bft)
09.04.2015 18:20 16,6 C 17,9 C 39 % 1024,6 hPa 0,0 mm 9,3 km/h (2 Bft) NW 315 2,6 C 10,6 km/h (2 Bft)
09.04.2015 18:25 16,4 C 17,4 C 39 % 1024,8 hPa 0,0 mm 9,1 km/h (2 Bft) W-NW 292 2,4 C 6,2 km/h (2 Bft)
09.04.2015 18:30 16,3 C 17,1 C 39 % 1024,8 hPa 0,0 mm 8,8 km/h (2 Bft) NW 315 2,3 C 10,4 km/h (2 Bft)
09.04.2015 18:35 16,0 C 17,1 C 39 % 1024,8 hPa 0,0 mm 9,6 km/h (2 Bft) W-NW 292 2,1 C 15,5 km/h (3 Bft)
09.04.2015 18:40 15,8 C 16,9 C 39 % 1024,8 hPa 0,0 mm 8,5 km/h (2 Bft) W-SW 247 1,9 C 5,4 km/h (1 Bft)
09.04.2015 18:45 15,7 C 16,3 C 39 % 1024,8 hPa 0,0 mm 8,5 km/h (2 Bft) W 270 1,8 C 6,5 km/h (2 Bft)
09.04.2015 18:50 15,5 C 16,0 C 39 % 1024,8 hPa 0,0 mm 9,6 km/h (2 Bft) W-NW 292 1,6 C 4,9 km/h (1 Bft)
09.04.2015 18:55 15,0 C 15,5 C 40 % 1024,8 hPa 0,0 mm 7,8 km/h (2 Bft) W 270 1,5 C 4,7 km/h (1 Bft)
09.04.2015 19:00 15,1 C 15,3 C 40 % 1024,8 hPa 0,0 mm 6,2 km/h (2 Bft) W-SW 247 1,6 C 5,2 km/h (1 Bft)
09.04.2015 19:05 14,8 C 15,1 C 40 % 1024,8 hPa 0,0 mm 5,7 km/h (1 Bft) W-SW 247 1,3 C 3,6 km/h (1 Bft)
09.04.2015 19:10 14,5 C 15,1 C 41 % 1024,8 hPa 0,0 mm 4,9 km/h (1 Bft) W 270 1,4 C 4,9 km/h (1 Bft)
09.04.2015 19:15 14,1 C 14,9 C 42 % 1024,8 hPa 0,0 mm 3,4 km/h (1 Bft) W 270 1,4 C 3,4 km/h (1 Bft)
09.04.2015 19:20 14,0 C 14,7 C 43 % 1024,8 hPa 0,0 mm 3,4 km/h (1 Bft) W 270 1,6 C 4,4 km/h (1 Bft)
09.04.2015 19:25 13,7 C 14,3 C 44 % 1024,8 hPa 0,0 mm 4,7 km/h (1 Bft) W 270 1,7 C 6,2 km/h (2 Bft)
09.04.2015 19:30 13,6 C 14,3 C 44 % 1024,8 hPa 0,0 mm 4,7 km/h (1 Bft) W 270 1,6 C 9,1 km/h (2 Bft)
09.04.2015 19:35 13,4 C 14,2 C 45 % 1024,8 hPa 0,0 mm 5,2 km/h (1 Bft) S 180 1,7 C 3,4 km/h (1 Bft)
09.04.2015 19:40 12,9 C 13,9 C 45 % 1024,8 hPa 0,0 mm 5,2 km/h (1 Bft) NW 315 1,3 C 7,8 km/h (2 Bft)
09.04.2015 19:45 12,4 C 13,2 C 46 % 1025,2 hPa 0,0 mm 4,4 km/h (1 Bft) W 270 1,1 C 3,1 km/h (1 Bft)
09.04.2015 19:50 12,0 C 12,7 C 47 % 1025,2 hPa 0,0 mm 4,7 km/h (1 Bft) W 270 1,0 C 4,7 km/h (1 Bft)
09.04.2015 19:55 11,9 C 12,1 C 47 % 1025,2 hPa 0,0 mm 3,4 km/h (1 Bft) W-SW 247 1,0 C 8,0 km/h (2 Bft)
09.04.2015 20:00 11,6 C 11,6 C 47 % 1025,2 hPa 0,0 mm 2,8 km/h (1 Bft) W-NW 292 0,7 C 8,0 km/h (2 Bft)
09.04.2015 20:05 11,3 C 11,3 C 48 % 1025,2 hPa 0,0 mm 4,9 km/h (1 Bft) W-SW 247 0,7 C 6,0 km/h (2 Bft)
09.04.2015 20:10 11,1 C 11,2 C 48 % 1025,2 hPa 0,0 mm 5,7 km/h (1 Bft) W 270 0,5 C 7,3 km/h (2 Bft)
09.04.2015 20:15 10,8 C 10,9 C 48 % 1025,2 hPa 0,0 mm 4,7 km/h (1 Bft) SW 225 0,2 C 6,2 km/h (2 Bft)
09.04.2015 20:20 10,8 C 10,7 C 48 % 1025,2 hPa 0,0 mm 4,1 km/h (1 Bft) W-SW 247 0,2 C 4,7 km/h (1 Bft)
09.04.2015 20:25 10,8 C 10,6 C 48 % 1025,3 hPa 0,0 mm 4,1 km/h (1 Bft) W-SW 247 0,2 C 4,1 km/h (1 Bft)
09.04.2015 20:30 10,5 C 10,4 C 48 % 1025,3 hPa 0,0 mm 3,6 km/h (1 Bft) W 270 -0,0 C 5,4 km/h (1 Bft)
09.04.2015 20:35 10,5 C 10,3 C 49 % 1025,3 hPa 0,0 mm 4,1 km/h (1 Bft) S 180 0,2 C 7,3 km/h (2 Bft)
09.04.2015 20:40 10,4 C 10,2 C 50 % 1025,3 hPa 0,0 mm 4,4 km/h (1 Bft) S 180 0,4 C 6,7 km/h (2 Bft)
09.04.2015 20:45 9,8 C 9,7 C 52 % 1025,6 hPa 0,0 mm 3,6 km/h (1 Bft) S-SO 157 0,4 C 2,6 km/h (1 Bft)
09.04.2015 20:50 9,3 C 9,3 C 54 % 1025,6 hPa 0,0 mm 2,6 km/h (1 Bft) W-SW 247 0,5 C 7,3 km/h (2 Bft)
09.04.2015 20:55 9,0 C 8,9 C 55 % 1025,6 hPa 0,0 mm 2,8 km/h (1 Bft) S 180 0,5 C 5,2 km/h (1 Bft)
09.04.2015 21:00 8,8 C 8,7 C 56 % 1025,6 hPa 0,0 mm 3,6 km/h (1 Bft) S-SO 157 0,5 C 3,4 km/h (1 Bft)
09.04.2015 21:05 8,5 C 8,4 C 57 % 1025,7 hPa 0,0 mm 3,6 km/h (1 Bft) S 180 0,5 C 4,4 km/h (1 Bft)
09.04.2015 21:10 8,5 C 8,4 C 57 % 1025,7 hPa 0,0 mm 3,6 km/h (1 Bft) S-SW 202 0,5 C 6,7 km/h (2 Bft)
09.04.2015 21:15 8,4 C 8,3 C 57 % 1025,7 hPa 0,0 mm 3,6 km/h (1 Bft) S 180 0,4 C 5,2 km/h (1 Bft)
09.04.2015 21:20 8,3 C 8,2 C 58 % 1025,7 hPa 0,0 mm 3,6 km/h (1 Bft) S-SO 157 0,5 C 3,9 km/h (1 Bft)
09.04.2015 21:25 7,9 C 7,8 C 59 % 1025,8 hPa 0,0 mm 4,1 km/h (1 Bft) S 180 0,4 C 4,4 km/h (1 Bft)
09.04.2015 21:30 7,7 C 7,7 C 59 % 1025,8 hPa 0,0 mm 4,1 km/h (1 Bft) S-SO 157 0,2 C 3,4 km/h (1 Bft)
09.04.2015 21:35 7,4 C 7,3 C 59 % 1025,8 hPa 0,0 mm 3,1 km/h (1 Bft) S-SO 157 -0,1 C 2,8 km/h (1 Bft)
09.04.2015 21:40 7,4 C 7,3 C 60 % 1025,8 hPa 0,0 mm 2,8 km/h (1 Bft) S 180 0,2 C 6,2 km/h (2 Bft)
09.04.2015 21:45 7,2 C 7,1 C 60 % 1025,6 hPa 0,0 mm 3,6 km/h (1 Bft) S 180 -0,0 C 3,1 km/h (1 Bft)
09.04.2015 21:50 7,0 C 6,9 C 60 % 1025,6 hPa 0,0 mm 4,4 km/h (1 Bft) S 180 -0,2 C 6,5 km/h (2 Bft)
09.04.2015 21:55 6,9 C 6,8 C 60 % 1025,6 hPa 0,0 mm 4,7 km/h (1 Bft) S-SO 157 -0,3 C 5,4 km/h (1 Bft)
09.04.2015 22:00 6,7 C 6,6 C 60 % 1025,6 hPa 0,0 mm 4,4 km/h (1 Bft) S-SO 157 -0,5 C 5,2 km/h (1 Bft)
09.04.2015 22:05 6,5 C 6,4 C 60 % 1025,6 hPa 0,0 mm 3,9 km/h (1 Bft) S-SO 157 -0,7 C 3,4 km/h (1 Bft)
09.04.2015 22:10 6,5 C 6,3 C 61 % 1025,6 hPa 0,0 mm 3,4 km/h (1 Bft) S 180 -0,5 C 2,8 km/h (1 Bft)
09.04.2015 22:15 6,4 C 6,2 C 63 % 1025,6 hPa 0,0 mm 1,6 km/h (1 Bft) SO 135 -0,1 C 2,6 km/h (1 Bft)
09.04.2015 22:20 6,2 C 5,9 C 62 % 1025,6 hPa 0,0 mm 0,5 km/h (0 Bft) SO 135 -0,5 C 0,0 km/h (0 Bft)
09.04.2015 22:25 6,0 C 5,6 C 63 % 1025,6 hPa 0,0 mm 0,3 km/h (0 Bft) O-SO 112 -0,5 C 0,0 km/h (0 Bft)
09.04.2015 22:30 5,9 C 5,5 C 66 % 1025,6 hPa 0,0 mm 0,0 km/h (0 Bft) O-SO 112 0,0 C 0,0 km/h (0 Bft)
09.04.2015 22:35 5,8 C 5,2 C 65 % 1025,6 hPa 0,0 mm 0,0 km/h (0 Bft) O-SO 112 -0,3 C 0,0 km/h (0 Bft)
09.04.2015 22:40 5,8 C 5,2 C 65 % 1025,6 hPa 0,0 mm 0,0 km/h (0 Bft) SO 135 -0,3 C 0,0 km/h (0 Bft)
09.04.2015 22:45 5,8 C 5,1 C 66 % 1025,4 hPa 0,0 mm 0,0 km/h (0 Bft) O-SO 112 -0,0 C 0,0 km/h (0 Bft)
09.04.2015 22:50 5,7 C 5,0 C 66 % 1025,4 hPa 0,0 mm 0,0 km/h (0 Bft) O-SO 112 -0,1 C 0,0 km/h (0 Bft)
09.04.2015 22:55 5,2 C 4,6 C 66 % 1025,4 hPa 0,0 mm 0,0 km/h (0 Bft) O-SO 112 -0,6 C 0,0 km/h (0 Bft)
09.04.2015 23:00 4,8 C 4,3 C 66 % 1025,4 hPa 0,0 mm 0,0 km/h (0 Bft) O-SO 112 -1,0 C 0,0 km/h (0 Bft)
09.04.2015 23:05 4,4 C 3,9 C 66 % 1025,2 hPa 0,0 mm 0,0 km/h (0 Bft) O-SO 112 -1,4 C 0,0 km/h (0 Bft)
09.04.2015 23:10 4,4 C 3,9 C 67 % 1025,2 hPa 0,0 mm 0,0 km/h (0 Bft) O-SO 112 -1,2 C 0,0 km/h (0 Bft)
09.04.2015 23:15 4,2 C 3,7 C 68 % 1025,2 hPa 0,0 mm 0,0 km/h (0 Bft) O-SO 112 -1,2 C 0,0 km/h (0 Bft)
09.04.2015 23:20 3,8 C 3,4 C 67 % 1025,2 hPa 0,0 mm 0,0 km/h (0 Bft) O-SO 112 -1,8 C 0,0 km/h (0 Bft)
09.04.2015 23:25 3,7 C 3,2 C 68 % 1025,1 hPa 0,0 mm 0,0 km/h (0 Bft) O-SO 112 -1,6 C 0,0 km/h (0 Bft)
09.04.2015 23:30 3,4 C 2,9 C 68 % 1025,1 hPa 0,0 mm 0,0 km/h (0 Bft) O-SO 112 -1,9 C 0,0 km/h (0 Bft)
09.04.2015 23:35 3,2 C 2,7 C 68 % 1025,1 hPa 0,0 mm 0,0 km/h (0 Bft) O-SO 112 -2,1 C 0,0 km/h (0 Bft)
09.04.2015 23:40 3,4 C 2,8 C 69 % 1025,1 hPa 0,0 mm 0,0 km/h (0 Bft) O-SO 112 -1,7 C 0,0 km/h (0 Bft)
09.04.2015 23:45 3,6 C 3,0 C 70 % 1025,1 hPa 0,0 mm 0,0 km/h (0 Bft) O-SO 112 -1,3 C 0,0 km/h (0 Bft)
09.04.2015 23:50 3,7 C 3,0 C 70 % 1025,1 hPa 0,0 mm 0,0 km/h (0 Bft) O-NO 67 -1,3 C 0,0 km/h (0 Bft)
09.04.2015 23:55 3,6 C 3,0 C 70 % 1025,1 hPa 0,0 mm 0,0 km/h (0 Bft) O-NO 67 -1,3 C 0,0 km/h (0 Bft)
_ Min-Zeit 07:10 07:05 15:50 18:20 - 23:55 - - 07:10 23:55
Minimum _ -2,8 C -3,2 C 36 % 1024,6 hPa - 0,0 km/h (0 Bft) - - -5,6 C 0,0 km/h (0 Bft)
_ Max-Zeit 16:10 14:30 07:50 11:40 23:55 12:10 - - 15:05 12:05
Maximum _ 18,8 C 23,0 C 82 % 1029,3 hPa 0,0 mm 12,9 km/h
W (3 Bft)
- - 4,2 C 24,3 km/h
W-NW (4 Bft)
Durchschnitt _ 7,4 C 9,3 C 60 % 1026,7 hPa #0,0 mm 3,5 km/h (1 Bft) NW - -0,5 C 4,3 km/h (1 Bft)